Location: Newark
(32.8494°S, 27.4381°E)
Time: 13:28:02
(UTC+00:00)

Hubble Space Telescope - Visible Passes

Search period start: 23 July 2019 00:00
Search period end: 02 August 2019 00:00
Orbit: 536 x 540 km, 28.5° (Epoch: 22 July)

Date Brightness Start Highest point End Pass type
(mag) Time Alt. Az. Time Alt. Az. Time Alt. Az.
23 Jul 2.2 16:36:47 10° NW 16:40:20 27° NNE 16:42:17 19° ENE visible
23 Jul 3.9 18:17:13 10° WNW 18:17:37 12° WNW 18:17:37 12° WNW visible
24 Jul 2.0 16:26:02 10° NW 16:29:45 31° NNE 16:32:23 16° ENE visible
24 Jul 3.5 18:06:39 10° WNW 18:07:44 17° WNW 18:07:44 17° WNW visible
25 Jul 1.9 16:15:21 10° NW 16:19:09 35° N 16:22:30 13° ENE visible
25 Jul 3.1 17:56:06 10° WNW 17:57:50 23° WNW 17:57:50 23° WNW visible
26 Jul 1.8 16:04:41 10° WNW 16:08:35 39° N 16:12:30 10° ENE visible
26 Jul 2.5 17:45:33 10° WNW 17:47:58 30° NW 17:47:58 30° NW visible
27 Jul 1.7 15:54:04 10° WNW 15:58:01 42° N 16:01:58 10° ENE visible
27 Jul 2.1 17:35:02 10° WNW 17:38:06 36° NW 17:38:06 36° NW visible
28 Jul 1.8 17:24:30 10° WNW 17:28:17 38° NNW 17:28:17 38° NNW visible
29 Jul 1.9 17:14:01 10° WNW 17:17:49 34° NNW 17:18:31 32° N visible
30 Jul 2.2 17:03:33 10° WNW 17:07:14 30° NNW 17:08:50 23° NNE visible
31 Jul 2.5 16:53:07 10° WNW 16:56:38 26° NNW 16:59:13 15° NNE visible
01 Aug 2.8 16:42:44 10° WNW 16:46:01 22° NNW 16:49:18 10° NE visible
